Вернуться в каталог

STARLINK-33787

АктивенСвязьVLEO
NORAD 63519·PAYLOAD·🇺🇸 United States

Запущен Apr 7, 2025 с Vandenberg Space Force Base

Loading…

Ближайшие Пролёты (ближайшие 24 часа)

TLE

СвежийSource: CelesTrak SupGP

Эпоха: Sep 14, 2026, 20:53 UTC

1 63519C 25071AC  26257.87062500 -.00008813  00000+0 -26045-3 0  2577
2 63519  53.1586 341.6920 0001158  84.7671  35.2304 15.34387065    17

Отслеживайте STARLINK-33787 в реальном времени с AllMySat

Download on the App Store